Weather History for Estherville, IA

Change the Weather History Date:

Friday, October 21, 2011

  Actual Average Record
Temperature  
Mean Temperature 46 °F 46 °F  
Max Temperature 66 °F 57 °F 84 °F (1978)
Min Temperature 26 °F 34 °F 20 °F (1960)
Degree Days  
Heating Degree Days 19 19  
Month to date heating degree days 198 321  
Since 1 July heating degree days 418 529  
Cooling Degree Days 0 0  
Month to date cooling degree days 21 4  
Year to date cooling degree days 767 591  
Moisture  
Dew Point 30 °F    
Average Humidity 59    
Maximum Humidity 88    
Minimum Humidity 29    
Precipitation  
Precipitation 0.00 in 0.05 in 0.85 in (1963)
Month to date precipitation 0.25 1.71  
Year to date precipitation 19.01  
Sea Level Pressure  
Sea Level Pressure 30.03 in    
Wind  
Wind Speed 7 mph (WSW)    
Max Wind Speed 15 mph    
Max Gust Speed 18 mph    
Visibility 10 miles    
Events      
T = Trace of Precipitation, MM = Missing Value Source: NWS Daily Summary

Daily Weather History Graph

Daily Weather History Graph

Search for Another Location

Airport:

Trip Planner

Search our weather history database for the weather conditions in past years. The results will help you decide how hot, cold, wet, or windy it might be!

Date:

Astronomy

Oct. 21, 2011 Rise Set
Actual Time 7:40 AM CDT 6:26 PM CDT
Civil Twilight 7:10 AM CDT 6:55 PM CDT
Nautical Twilight 6:37 AM CDT 7:28 PM CDT
Astronomical Twilight 6:04 AM CDT 8:01 PM CDT
Moon 1:20 AM CDT (10/21) 3:20 PM CDT (10/21)
Length of Visible Light 11h 44m
Length of Day
10h 46m
Waning Crescent, 33% of the Moon is Illuminated
Oct 21
Waning Crescent
Oct 26
New
Nov 2
First Quarter
Nov 10
Full
Nov 18
Last Quarter

Hourly Weather History & Observations

Time (CDT) Temp. Windchill Dew Point Humidity Pressure Visibility Wind Dir Wind Speed Gust Speed Precip Events Conditions
1:52 AM 28.0 °F 24.2 °F 24.1 °F 85% 30.06 in 10.0 mi West 3.5 mph - N/A   Clear
2:52 AM 28.0 °F 24.2 °F 24.1 °F 85% 30.06 in 10.0 mi WSW 3.5 mph - N/A   Clear
4:52 AM 27.0 °F 23.0 °F 23.0 °F 85% 30.07 in 10.0 mi SSW 3.5 mph - N/A   Clear
5:52 AM 26.1 °F 19.4 °F 21.9 °F 84% 30.07 in 10.0 mi South 5.8 mph - N/A   Clear
6:52 AM 26.1 °F 20.5 °F 21.9 °F 84% 30.09 in 10.0 mi SW 4.6 mph - N/A   Clear
7:52 AM 27.0 °F 20.5 °F 23.0 °F 85% 30.09 in 10.0 mi South 5.8 mph - N/A   Clear
8:52 AM 32.0 °F 26.4 °F 27.0 °F 82% 30.11 in 10.0 mi SSW 5.8 mph - N/A   Clear
10:52 AM 51.1 °F - 30.0 °F 44% 30.07 in 10.0 mi SSW 13.8 mph - N/A   Clear
12:52 PM 59.0 °F - 32.0 °F 36% 30.01 in - North - - N/A   Unknown
1:52 PM 62.1 °F - 32.0 °F 32% 29.99 in 9.0 mi SW 15.0 mph - N/A   Unknown
2:52 PM 64.0 °F - 34.0 °F 33% 29.98 in 10.0 mi SW 8.1 mph - N/A   Clear
3:52 PM 66.0 °F - 34.0 °F 30% 29.97 in 10.0 mi West 11.5 mph - N/A   Clear
4:52 PM 64.9 °F - 34.0 °F 32% 29.98 in 10.0 mi West 12.7 mph - N/A   Clear
5:52 PM 61.0 °F - 35.1 °F 38% 29.99 in 10.0 mi West 6.9 mph - N/A   Clear
6:52 PM 55.0 °F - 33.1 °F 43% 29.99 in 10.0 mi WSW 4.6 mph - N/A   Clear
7:52 PM 46.9 °F - 33.1 °F 59% 30.01 in 10.0 mi WSW 8.1 mph - N/A   Clear
8:52 PM 44.1 °F 39.5 °F 32.0 °F 63% 30.01 in 10.0 mi West 8.1 mph - N/A   Clear
10:52 PM 42.1 °F 37.1 °F 34.0 °F 73% 30.04 in 10.0 mi NW 8.1 mph - N/A   Clear
11:52 PM 39.9 °F 34.5 °F 33.1 °F 77% 30.05 in 10.0 mi WNW 8.1 mph - N/A   Clear